91P/Russell 3 (2020)

Japanese version
Home page
Updated on September 18, 2021

---------------------------------------------------------------------

* Profile

* Pictures

* Orbital Elements

Epoch 2021 July 5.0 TT = JDT 2459400.5
T 2020 Nov.  9.66570 TT                                 Rudenko
q   2.6044256            (2000.0)            P               Q
n   0.12823106     Peri.  354.88683     -0.45623820     +0.86085346
a   3.8946989      Node   247.80868     -0.80755827     -0.50690982
e   0.3312896      Incl.   14.08532     -0.37375974     +0.04442690
P   7.69
From 280 observations 2004 Mar. 18-2021 June 16, mean residual 0".8.
     Nongravitational parameters A1 = +0.13, A2 = +0.1308.

* Magnitudes Graph

        m1 = 13.0 + 5 log d + 10.0 log r

---------------------------------------------------------------------

The orbital elements are published on M.P.E.C. 2021-O56.
The magnitudes graphs are made with Comet for Windows.

---------------------------------------------------------------------

Copyright(C) Seiichi Yoshida (comet@aerith.net). All rights reserved.